Home   Weather   Ludwigsfelde   Past weeks

Flag for Germany Past Weather in Ludwigsfelde, Brandenburg, Germany — Yesterday and Last 2 Weeks

50 °F

Partly sunny.

Feels Like: 48 °F
Forecast: 40 / 49 °F
Wind: 5 mph from Northwest

Location: Berlin-Schoenefeld

Current Time: Oct 25, 2016 at 12:29:18 PM

Latest Report: Oct 25, 2016 at 11:50 AM

Visibility: 4 mi

Pressure: 30.12 "Hg

Humidity: 94%

Dew Point: 48 °F

Location of LudwigsfeldeLocation

Past Weather in Ludwigsfelde — Graph


Ludwigsfelde Temperature Yesterday

Maximum temperature yesterday: 48 °F (at 1:20 PM)
Minimum temperature yesterday: 41 °F (at 12:20 AM)
Average temperature yesterday: 46 °F

High & Low Weather Summary for the Past Weeks

High54 °F (Oct 14, 3:50 PM)100% (Oct 11, 4:50 AM)30.30 "Hg (Oct 11, 4:50 AM)
Low37 °F (Oct 14, 5:50 AM)58% (Oct 14, 3:50 PM)29.86 "Hg (Oct 15, 4:50 AM)
Average46 °F90%30.07 "Hg
* Reported Oct 10 11:20 AM — Oct 25 11:20 AM, Ludwigsfelde, Weather by CustomWeather, © 2016

Note: Actual official high and low records may vary slightly from our data, if they occured in-between our weather recording intervals... More about our weather records


Ludwigsfelde Weather History for the Previous 24 Hours

Scroll right to see more
Time TempWeatherWind HumidityBarometerVisibility
11:20 AM
Tue, Oct 25
50 °FPartly sunny.3 mph94%30.12 "Hg4 mi
10:50 AM50 °FBroken clouds.3 mph94%30.12 "Hg4 mi
10:20 AM48 °FPartly sunny.3 mph100%30.12 "Hg4 mi
9:50 AM48 °FLight rain. Partly sunny.5 mph94%30.09 "Hg4 mi
9:20 AM48 °FLight rain. Partly sunny.6 mph94%30.09 "Hg3 mi
8:50 AM48 °FLight rain. Fog.7 mph94%30.09 "Hg3 mi
8:20 AM48 °FLight rain. Fog.6 mph94%30.07 "Hg2 mi
7:50 AM48 °FLight rain. Fog.3 mph94%30.07 "Hg2 mi
7:20 AM48 °FDrizzle. Fog.6 mph94%30.04 "Hg2 mi
6:50 AM48 °FLight rain. Fog.7 mph94%30.04 "Hg2 mi
6:20 AM48 °FDrizzle. Fog.7 mph94%30.04 "Hg2 mi
5:50 AM48 °FLight rain. Fog.7 mph94%30.01 "Hg2 mi
5:20 AM48 °FLight rain. Fog.7 mph94%30.01 "Hg2 mi
4:50 AM48 °FLight rain. Fog.8 mph94%30.01 "Hg2 mi
4:20 AM48 °FFog.7 mph94%30.01 "Hg2 mi
3:50 AM48 °FFog.7 mph94%30.01 "Hg2 mi
3:20 AM48 °FLight rain. Fog.7 mph100%30.01 "Hg2 mi
2:50 AM48 °FFog.7 mph100%30.01 "Hg2 mi
2:20 AM48 °FFog.3 mph100%30.01 "Hg2 mi
1:50 AM48 °FFog.5 mph100%30.01 "Hg2 mi
1:20 AM48 °FFog.7 mph100%30.01 "Hg2 mi
12:50 AM48 °FFog.7 mph100%30.01 "Hg2 mi
12:20 AM48 °FDrizzle. Fog.7 mph100%30.01 "Hg1 mi
11:50 PM
Mon, Oct 24
48 °FDrizzle. Fog.7 mph100%30.01 "Hg1 mi
11:20 PM48 °FDrizzle. Fog.5 mph100%30.01 "Hg1 mi
10:50 PM48 °FDrizzle. Fog.6 mph94%30.01 "Hg1 mi
10:20 PM48 °FDrizzle. Fog.7 mph94%30.01 "Hg1 mi
9:50 PM48 °FDrizzle. Fog.7 mph94%30.01 "Hg1 mi
9:20 PM48 °FDrizzle. Fog.6 mph94%30.01 "Hg1 mi
8:50 PM48 °FLight rain. Fog.6 mph94%30.01 "Hg1 mi
8:20 PM48 °FLight rain. Fog.7 mph94%30.01 "Hg1 mi
7:50 PM48 °FLight rain. Fog.7 mph94%30.01 "Hg1 mi
7:20 PM46 °FLight rain. Fog.7 mph100%30.01 "Hg2 mi
6:50 PM48 °FLight rain. Fog.6 mph94%30.04 "Hg2 mi
6:20 PM48 °FLight rain. Fog.7 mph94%30.04 "Hg2 mi
5:50 PM48 °FLight rain. Fog.6 mph94%30.01 "Hg2 mi
5:20 PM48 °FLight rain. Fog.6 mph94%30.04 "Hg2 mi
4:50 PM48 °FLight rain. Partly sunny.7 mph94%30.01 "Hg3 mi
4:20 PM48 °FLight rain. Partly sunny.6 mph94%30.04 "Hg4 mi
3:50 PM48 °FLight rain. Partly sunny.5 mph87%30.04 "Hg4 mi
3:20 PM48 °FPartly sunny.7 mph87%30.01 "Hg4 mi
2:50 PM48 °FPartly sunny.5 mph87%30.04 "Hg4 mi
2:20 PM48 °FFog.6 mph87%30.04 "Hg3 mi
1:50 PM48 °FFog.5 mph87%30.04 "Hg3 mi
1:20 PM48 °FFog.6 mph87%30.04 "Hg3 mi
12:50 PM46 °FFog.3 mph93%30.04 "Hg3 mi
12:20 PM46 °FFog.5 mph93%30.04 "Hg3 mi
Weather by CustomWeather, © 2016

See weather overviewHow to use our weather pages